Location: Newark
(63.1158°N, 8.1461°E)
Time: 05:40:04
(UTC+00:00)

Envisat - Visible Passes

Search period start: 11 December 2019 00:00
Search period end: 21 December 2019 00:00
Orbit: 764 x 766 km, 98.1° (Epoch: 10 December)

Date Brightness Start Highest point End Pass type
(mag) Time Alt. Az. Time Alt. Az. Time Alt. Az.
11 Dec 4.9 05:39:38 10° NNE 05:44:14 32° E 05:48:47 10° SSE visible
11 Dec 3.0 07:18:36 10° NNE 07:23:42 70° WNW 07:28:45 10° SSW visible
11 Dec 3.6 15:27:13 10° ESE 15:31:48 35° NE 15:36:24 10° NNW visible
11 Dec 3.2 17:05:31 10° S 17:10:37 72° WSW 17:15:44 10° NNW visible
11 Dec 5.5 18:46:52 10° SW 18:50:33 20° W 18:54:14 10° NW visible
12 Dec 5.6 05:03:13 10° NE 05:06:59 20° E 05:10:44 10° SE visible
12 Dec 3.3 06:41:46 10° NNE 06:46:54 75° ESE 06:51:59 10° SSW visible
12 Dec 4.0 14:51:18 10° E 14:55:22 25° NE 14:59:27 10° N visible
12 Dec 2.9 16:28:44 10° SSE 16:33:48 72° ENE 16:38:54 10° NNW visible
12 Dec 4.8 18:08:47 10° SSW 18:13:18 31° W 18:17:51 10° NNW visible
13 Dec 6.1 04:27:27 10° NE 04:29:34 12° ENE 04:31:39 10° E visible
13 Dec 4.2 06:05:01 10° NNE 06:09:57 46° E 06:14:50 10° S visible
13 Dec 3.2 07:44:11 10° NNE 07:49:07 51° WNW 07:54:02 10° SW visible
13 Dec 3.2 15:52:17 10° SE 15:57:08 46° ENE 16:02:00 10° NNW visible
13 Dec 3.8 17:31:16 10° S 17:36:13 51° W 17:41:12 10° NNW visible
13 Dec 6.0 19:13:52 10° WSW 19:16:29 14° WNW 19:19:07 10° NW visible
14 Dec 5.1 05:28:25 10° NNE 05:32:49 28° E 05:37:12 10° SSE visible
14 Dec 3.0 07:07:18 10° NNE 07:12:25 80° WNW 07:17:31 10° SSW visible
14 Dec 3.7 15:16:10 10° ESE 15:20:37 31° NE 15:25:04 10° N visible
14 Dec 3.0 16:54:12 10° SSE 16:59:18 83° WSW 17:04:26 10° NNW visible
14 Dec 5.3 18:35:07 10° SW 18:39:07 23° W 18:43:07 10° NW visible
15 Dec 5.8 04:52:08 10° NE 04:55:32 18° E 04:58:55 10° ESE visible
15 Dec 3.5 06:30:29 10° NNE 06:35:34 65° ESE 06:40:39 10° S visible
15 Dec 3.0 16:17:30 10° SE 16:22:32 63° ENE 16:27:35 10° NNW visible
15 Dec 4.5 17:57:13 10° SSW 18:01:54 36° W 18:06:37 10° NNW visible
16 Dec 6.3 04:17:04 10° ENE 04:18:03 10° ENE 04:19:03 10° E visible
16 Dec 4.5 05:53:46 10° NNE 05:58:34 39° E 06:03:21 10° SSE visible
16 Dec 3.1 07:32:51 10° NNE 07:37:52 58° WNW 07:42:52 10° SW visible
16 Dec 3.4 15:41:10 10° SE 15:45:55 41° NE 15:50:41 10° NNW visible
16 Dec 3.6 17:19:51 10° S 17:24:52 59° WSW 17:29:56 10° NNW visible
16 Dec 5.8 19:01:52 10° WSW 19:05:01 16° W 19:08:09 10° NW visible
17 Dec 5.3 05:17:14 10° NNE 05:21:24 25° E 05:25:33 10° SE visible
17 Dec 3.0 06:56:00 10° NNE 07:01:08 89° ESE 07:06:15 10° SSW visible
17 Dec 3.8 15:05:08 10° ESE 15:09:26 28° NE 15:13:44 10° N visible
17 Dec 2.9 16:42:54 10° SSE 16:48:00 87° ENE 16:53:08 10° NNW visible
17 Dec 5.1 18:23:27 10° SW 18:27:41 26° W 18:31:56 10° NNW visible
18 Dec 6.0 04:41:05 10° NE 04:44:03 15° E 04:47:01 10° ESE visible
18 Dec 3.8 06:19:13 10° NNE 06:24:15 56° ESE 06:29:15 10° S visible
18 Dec 3.1 16:06:19 10° SE 16:11:16 55° ENE 16:16:16 10° NNW visible
18 Dec 4.2 17:45:43 10° SSW 17:50:31 42° W 17:55:23 10° NNW visible
18 Dec 6.2 19:29:29 10° W 19:31:00 11° WNW 19:32:31 10° WNW visible
19 Dec 4.7 05:42:32 10° NNE 05:47:12 34° E 05:51:49 10° SSE visible
19 Dec 3.0 07:21:32 10° NNE 07:26:37 67° WNW 07:31:40 10° SW visible
19 Dec 3.5 15:30:04 10° ESE 15:34:42 37° NE 15:39:21 10° NNW visible
19 Dec 3.3 17:08:28 10° S 17:13:33 68° WSW 17:18:39 10° NNW visible
19 Dec 5.6 18:50:01 10° SW 18:53:32 19° W 18:57:06 10° NW visible
20 Dec 5.5 05:06:05 10° NE 05:09:58 21° E 05:13:51 10° SE visible
20 Dec 3.2 06:44:42 10° NNE 06:49:50 79° ESE 06:54:56 10° SSW visible
20 Dec 3.9 14:54:07 10° E 14:58:15 26° NE 15:02:24 10° N visible
20 Dec 2.9 16:31:38 10° SSE 16:36:43 76° ENE 16:41:50 10° NNW visible
20 Dec 4.9 18:11:49 10° SSW 18:16:16 30° W 18:20:44 10° NNW visible
